Home > Time Zones > World Clock > Weather > Peru > Callao > Past weeks

Flag for Peru Weather past 2 weeks in Callao, Callao, Peru

Now
64 °F

Passing clouds.


Feels Like: 64 °F
Forecast: 64 / 70 °F
Wind: 12 mph from South

Location: Lima-Callao / Aerop. Internacional Jorgechavez

Current Time: Aug 29, 2015 at 1:43:04 AM

Latest Report: Aug 29, 2015 at 1:00 AM


Visibility: N/A

Pressure: 29.92 "Hg

Humidity: 83%

Dew point: 59 °F

Location of CallaoLocation

Historic Weather in Callao — Graph

°F

Callao temperature yesterday

Maximum temperature yesterday: 72 °F (at 1:00 PM)
Minimum temperature yesterday: 64 °F (at 12:00 AM)
Average temperature yesterday: 66 °F

Past Weeks' High & Low Weather Summary

 TemperatureHumidityPressure
High72 °F (Aug 23, 3:00 PM)94% (Aug 16, 3:00 AM)30.04 "Hg (Aug 16, 3:00 AM)
Low61 °F (Aug 16, 3:00 AM)64% (Aug 14, 1:00 PM)29.86 "Hg (Aug 19, 3:00 PM)
Average65 °F80%29.95 "Hg
* Reported Midnight between Aug 13 and Aug 14 — Midnight between Aug 28 and Aug 29, Callao, Weather by CustomWeather, © 2015

Note: Actual official high and low records may vary slightly from our data, if they occured in-between our weather recording intervals... More about our weather records

Advertising

Callao weather history for previous 24 hours

 ConditionsComfort  
Time TempWeatherWind HumidityBarometerVisibility
12:00 AM
Sat, Aug 29
64 °FPassing clouds.13 mph83%29.92 "HgN/A
11:00 PM
Fri, Aug 28
64 °FPassing clouds.12 mph83%29.92 "HgN/A
10:00 PM64 °FClear.12 mph83%29.92 "Hg10 mi
9:00 PM64 °FPassing clouds.12 mph83%29.92 "HgN/A
8:00 PM64 °FClear.12 mph83%29.92 "Hg10 mi
7:00 PM66 °FClear.12 mph78%29.89 "Hg10 mi
6:00 PM66 °FSunny.10 mph78%29.86 "Hg10 mi
5:00 PM70 °FSunny.10 mph69%29.86 "Hg10 mi
4:00 PM70 °FSunny.12 mph69%29.86 "Hg10 mi
3:00 PM72 °FPassing clouds.9 mph65%29.86 "HgN/A
2:00 PM72 °FPassing clouds.9 mph65%29.89 "HgN/A
1:00 PM72 °FPartly sunny.3 mph65%29.92 "HgN/A
12:00 PM68 °FOvercast.5 mph73%29.95 "HgN/A
11:00 AM66 °FOvercast.8 mph78%29.95 "HgN/A
10:00 AM66 °FOvercast.9 mph78%29.98 "HgN/A
9:00 AM64 °FOvercast.9 mph83%29.98 "HgN/A
8:00 AM64 °FOvercast.8 mph83%29.95 "HgN/A
7:00 AM64 °FFog.9 mph83%29.92 "Hg3 mi
6:00 AM64 °FOvercast.9 mph83%29.92 "Hg6 mi
5:00 AM64 °FOvercast.6 mph83%29.92 "Hg4 mi
4:00 AM64 °FOvercast.2 mph83%29.92 "Hg4 mi
3:00 AM64 °FOvercast.6 mph83%29.92 "Hg5 mi
2:00 AM64 °FOvercast.5 mph83%29.95 "Hg5 mi
1:00 AM64 °FOvercast.9 mph83%29.95 "Hg6 mi
Weather by CustomWeather, © 2015

See weather overviewHow to use our weather pages